Santa Fe, NM

5:40 PM MDT on September 22, 2019 (GMT -0600)
Santa Fe Municipal

Weather History for KSAF - August, 2019

Change the Weather History Date:

Thursday, August 22, 2019

  Actual Average Record
Temperature  
Mean Temperature 72 °F -  
Max Temperature 90 °F 90 °F 95 °F (2007)
Min Temperature 54 °F 47 °F 47 °F (1980)
Cooling Degree Days 6    
Growing Degree Days 22 (Base 50)    
Moisture  
Dew Point 47 °F    
Average Humidity 48    
Maximum Humidity 90    
Minimum Humidity 17    
Precipitation  
Precipitation 0.00 in - - ()
Sea Level Pressure  
Sea Level Pressure 29.87 in    
Wind  
Wind Speed 6 mph ()    
Max Wind Speed 15 mph    
Max Gust Speed 28 mph    
Visibility 10.0 miles    
Events Thunderstorm    
Averages and records for this station are not official NWS values.
T = Trace of Precipitation, MM = Missing Value Source: Averaged Metar Reports

Daily Weather History Graph

Daily Weather History Graph

Search for Another Location

Airport or City:

Astronomy

Aug. 22, 2019 Rise Set
Actual Time 6:28 AM MDT 7:45 PM MDT
Civil Twilight 6:02 AM MDT 8:11 PM MDT
Nautical Twilight 5:30 AM MDT 8:43 PM MDT
Astronomical Twilight 4:57 AM MDT 9:16 PM MDT
Moon 11:51 PM MDT 12:53 PM MDT
Length of Visible Light 14h 09m
Length of Day
13h 16m
Waning Gibbous, 59% of the Moon is Illuminated
Aug 22
Waning Gibbous
Aug 23
Last Quarter
Aug 30
New
Sep 5
First Quarter
Sep 13
Full

Hourly Weather History & Observations

Time (MDT) Temp. Dew Point Humidity Pressure Visibility Wind Dir Wind Speed Gust Speed Precip Events Conditions
12:53 AM 59.0 °F 54.0 °F 83% 29.91 in 10.0 mi East 3.5 mph - N/A   Clear
1:53 AM 55.9 °F 53.1 °F 90% 29.91 in 10.0 mi North 5.8 mph - N/A   Clear
2:53 AM 55.0 °F 52.0 °F 89% 29.89 in 10.0 mi North 5.8 mph - N/A   Clear
3:53 AM 55.0 °F 51.1 °F 86% 29.89 in 10.0 mi NNE 8.1 mph - N/A   Clear
4:53 AM 54.0 °F 50.0 °F 86% 29.91 in 10.0 mi North 9.2 mph - N/A   Clear
6:53 AM 55.9 °F 48.9 °F 77% 29.98 in 10.0 mi Calm Calm - N/A   Clear
7:53 AM 60.1 °F 53.1 °F 78% 29.96 in 10.0 mi NNW 4.6 mph - N/A   Clear
8:53 AM 66.0 °F 52.0 °F 60% 29.96 in 10.0 mi SE 9.2 mph - N/A   Clear
9:53 AM 70.0 °F 52.0 °F 53% 29.94 in 10.0 mi SE 6.9 mph - N/A   Clear
10:53 AM 73.0 °F 48.9 °F 42% 29.93 in 10.0 mi Variable 3.5 mph - N/A   Clear
11:53 AM 77.0 °F 48.0 °F 36% 29.91 in 10.0 mi Variable 5.8 mph - N/A   Clear
12:53 PM 81.0 °F 48.9 °F 33% 29.86 in 10.0 mi Variable 5.8 mph - N/A   Clear
1:53 PM 82.9 °F 46.9 °F 28% 29.84 in 10.0 mi SW 5.8 mph - N/A   Clear
2:53 PM 86.0 °F 44.1 °F 23% 29.80 in 10.0 mi SW 15.0 mph 21.9 mph N/A   Clear
3:53 PM 88.0 °F 39.9 °F 18% 29.75 in 10.0 mi WSW 10.4 mph 19.6 mph N/A   Clear
4:53 PM 89.1 °F 39.0 °F 17% 29.73 in 10.0 mi WSW 13.8 mph 25.3 mph N/A   Clear
5:53 PM 84.0 °F 39.0 °F 20% 29.75 in 10.0 mi WSW 9.2 mph - 0.00 in   Scattered Clouds
7:53 PM 77.0 °F 42.1 °F 29% 29.78 in 10.0 mi East 3.5 mph - N/A   Partly Cloudy
8:05 PM 77.0 °F 41.0 °F 28% 30.08 in 10.0 mi East 8.1 mph - N/A Thunderstorm Partly Cloudy
8:53 PM 75.9 °F 39.9 °F 27% 29.79 in 10.0 mi SE 13.8 mph - N/A   Clear
9:53 PM 75.0 °F 42.1 °F 31% 29.79 in 10.0 mi SE 13.8 mph 27.6 mph N/A   Partly Cloudy
10:53 PM 71.1 °F 45.0 °F 39% 29.83 in 10.0 mi SE 15.0 mph - 0.00 in   Partly Cloudy
11:53 PM 70.0 °F 44.1 °F 39% 29.81 in 10.0 mi ESE 8.1 mph - N/A   Clear